Weather History for Beatrice, NE

Change the Weather History Date:

Monday, December 5, 2011

  Actual Average Record
Temperature  
Mean Temperature 22 °F -  
Max Temperature 26 °F 43 °F 65 °F (1975)
Min Temperature 19 °F 27 °F 3 °F (2005)
Degree Days  
Heating Degree Days 42    
Moisture  
Dew Point 19 °F    
Average Humidity 84    
Maximum Humidity 93    
Minimum Humidity 80    
Precipitation  
Precipitation 0.00 in - - ()
Sea Level Pressure  
Sea Level Pressure 30.43 in    
Wind  
Wind Speed 13 mph (North)    
Max Wind Speed 22 mph    
Max Gust Speed 26 mph    
Visibility 10 miles    
Events      
Averages and records for this station are not official NWS values.
T = Trace of Precipitation, MM = Missing Value Source: NWS Daily Summary

Daily Weather History Graph

Daily Weather History Graph

Search for Another Location

Airport:

Trip Planner

Search our weather history database for the weather conditions in past years. The results will help you decide how hot, cold, wet, or windy it might be!

Date:

Astronomy

Dec. 05, 2011 Rise Set
Actual Time 7:34 AM CST 5:00 PM CST
Civil Twilight 7:03 AM CST 5:31 PM CST
Nautical Twilight 6:29 AM CST 6:05 PM CST
Astronomical Twilight 5:57 AM CST 6:38 PM CST
Moon 1:59 PM CST (12/5) 2:56 AM CST (12/5)
Length of Visible Light 10h 27m
Length of Day
9h 26m
Waxing Gibbous, 80% of the Moon is Illuminated
Dec 5
Waxing Gibbous
Dec 10
Full
Dec 17
Last Quarter
Dec 24
New
Jan 1
First Quarter

Hourly Weather History & Observations

Time (CST) Temp. Windchill Dew Point Humidity Pressure Visibility Wind Dir Wind Speed Gust Speed Precip Events Conditions
12:15 AM 19.4 °F 12.8 °F 17.6 °F 93% 30.37 in 10.0 mi WNW 4.6 mph - N/A   Scattered Clouds
12:35 AM 19.4 °F 12.8 °F 17.6 °F 93% 30.38 in 10.0 mi NNW 4.6 mph - N/A   Overcast
12:55 AM 23.0 °F 10.1 °F 19.4 °F 86% 30.38 in 10.0 mi NNW 15.0 mph - N/A   Overcast
1:15 AM 23.0 °F 11.1 °F 19.4 °F 86% 30.38 in 10.0 mi NNW 12.7 mph - N/A   Overcast
1:35 AM 21.2 °F 8.3 °F 19.4 °F 93% 30.37 in 10.0 mi NNW 13.8 mph - N/A   Overcast
1:55 AM 23.0 °F 10.1 °F 19.4 °F 86% 30.38 in 10.0 mi NNW 15.0 mph - N/A   Overcast
2:15 AM 23.0 °F 11.1 °F 21.2 °F 93% 30.38 in 10.0 mi NNW 12.7 mph - N/A   Overcast
2:35 AM 24.8 °F 11.9 °F 21.2 °F 86% 30.38 in 10.0 mi NNW 16.1 mph - N/A   Overcast
2:55 AM 24.8 °F 11.5 °F 21.2 °F 86% 30.39 in 10.0 mi NNW 17.3 mph 20.7 mph N/A   Overcast
3:15 AM 24.8 °F 11.5 °F 21.2 °F 86% 30.38 in 10.0 mi NNW 17.3 mph 25.3 mph N/A   Overcast
3:35 AM 23.0 °F 10.1 °F 21.2 °F 93% 30.38 in 10.0 mi NNW 15.0 mph - N/A   Overcast
3:55 AM 23.0 °F 9.6 °F 19.4 °F 86% 30.38 in 10.0 mi NNW 16.1 mph 19.6 mph N/A   Overcast
4:15 AM 23.0 °F 10.1 °F 19.4 °F 86% 30.38 in 10.0 mi NNW 15.0 mph - N/A   Overcast
4:35 AM 23.0 °F 8.7 °F 19.4 °F 86% 30.37 in 10.0 mi NNW 18.4 mph - N/A   Overcast
4:55 AM 21.2 °F 6.4 °F 17.6 °F 86% 30.38 in 10.0 mi NNW 18.4 mph - N/A   Overcast
5:15 AM 21.2 °F 5.2 °F 17.6 °F 86% 30.38 in 10.0 mi North 21.9 mph - N/A   Overcast
5:35 AM 21.2 °F 7.3 °F 17.6 °F 86% 30.39 in 10.0 mi North 16.1 mph - N/A   Overcast
5:55 AM 21.2 °F 7.8 °F 17.6 °F 86% 30.42 in 10.0 mi North 15.0 mph 25.3 mph N/A   Overcast
6:15 AM 21.2 °F 6.0 °F 15.8 °F 80% 30.43 in 10.0 mi North 19.6 mph 26.5 mph N/A   Overcast
6:35 AM 21.2 °F 6.8 °F 15.8 °F 80% 30.44 in 10.0 mi NNW 17.3 mph - N/A   Overcast
6:55 AM 21.2 °F 7.8 °F 15.8 °F 80% 30.45 in 10.0 mi North 15.0 mph - N/A   Overcast
7:15 AM 21.2 °F 6.8 °F 15.8 °F 80% 30.45 in 10.0 mi North 17.3 mph 20.7 mph N/A   Overcast
7:35 AM 19.4 °F 6.0 °F 15.8 °F 86% 30.45 in 10.0 mi North 13.8 mph - N/A   Overcast
7:55 AM 19.4 °F 6.0 °F 15.8 °F 86% 30.45 in 10.0 mi North 13.8 mph - N/A   Overcast
8:15 AM 19.4 °F 6.6 °F 15.8 °F 86% 30.46 in 10.0 mi NNW 12.7 mph - N/A   Overcast
8:35 AM 21.2 °F 10.9 °F 15.8 °F 80% 30.46 in 10.0 mi NNW 9.2 mph - N/A   Overcast
8:55 AM 21.2 °F 10.1 °F 17.6 °F 86% 30.47 in 10.0 mi NNW 10.4 mph - N/A   Overcast
9:15 AM 21.2 °F 10.1 °F 17.6 °F 86% 30.47 in 10.0 mi North 10.4 mph - N/A   Overcast
9:35 AM 23.0 °F 11.7 °F 19.4 °F 86% 30.48 in 10.0 mi North 11.5 mph - N/A   Overcast
9:55 AM 23.0 °F 12.4 °F 19.4 °F 86% 30.47 in 10.0 mi North 10.4 mph - N/A   Overcast
10:15 AM 24.8 °F 12.4 °F 19.4 °F 80% 30.48 in 10.0 mi North 15.0 mph - N/A   Overcast
10:35 AM 24.8 °F 14.6 °F 19.4 °F 80% 30.49 in 10.0 mi North 10.4 mph 17.3 mph N/A   Overcast
10:55 AM 24.8 °F 12.9 °F 19.4 °F 80% 30.48 in 10.0 mi North 13.8 mph - N/A   Overcast
11:15 AM 24.8 °F 13.4 °F 21.2 °F 86% 30.49 in 10.0 mi North 12.7 mph 16.1 mph N/A   Overcast
11:35 AM 24.8 °F 14.0 °F 21.2 °F 86% 30.49 in 10.0 mi North 11.5 mph - N/A   Overcast
11:55 AM 24.8 °F 12.9 °F 21.2 °F 86% 30.48 in 10.0 mi North 13.8 mph 19.6 mph N/A   Overcast
12:15 PM 26.6 °F 15.7 °F 21.2 °F 80% 30.47 in 10.0 mi NNE 12.7 mph - N/A   Overcast
12:35 PM 26.6 °F 16.2 °F 21.2 °F 80% 30.46 in 10.0 mi North 11.5 mph - N/A   Overcast
12:55 PM 26.6 °F 16.2 °F 21.2 °F 80% 30.46 in 10.0 mi North 11.5 mph - N/A   Overcast
1:15 PM 26.6 °F 14.3 °F 21.2 °F 80% 30.46 in 10.0 mi North 16.1 mph - N/A   Overcast
1:35 PM 24.8 °F 11.5 °F 21.2 °F 86% 30.46 in 7.0 mi North 17.3 mph - N/A   Overcast
1:55 PM 23.0 °F 8.3 °F 21.2 °F 93% 30.45 in 4.0 mi North 19.6 mph 24.2 mph N/A   Overcast
2:15 PM 23.0 °F 9.6 °F 21.2 °F 93% 30.45 in 5.0 mi North 16.1 mph 23.0 mph N/A   Overcast
2:35 PM 24.8 °F 12.9 °F 21.2 °F 86% 30.44 in 7.0 mi North 13.8 mph - N/A   Overcast
2:55 PM 24.8 °F 11.9 °F 19.4 °F 80% 30.45 in 10.0 mi North 16.1 mph 23.0 mph N/A   Overcast
3:15 PM 23.0 °F 9.6 °F 17.6 °F 80% 30.44 in 10.0 mi North 16.1 mph - N/A   Overcast
3:35 PM 23.0 °F 10.1 °F 17.6 °F 80% 30.44 in 10.0 mi North 15.0 mph - N/A   Overcast
3:55 PM 23.0 °F 8.7 °F 19.4 °F 86% 30.44 in 10.0 mi North 18.4 mph 23.0 mph N/A   Overcast
4:15 PM 23.0 °F 10.1 °F 17.6 °F 80% 30.43 in 10.0 mi North 15.0 mph 20.7 mph N/A   Overcast
4:35 PM 23.0 °F 8.3 °F 17.6 °F 80% 30.44 in 10.0 mi North 19.6 mph - N/A   Overcast
4:55 PM 21.2 °F 6.0 °F 15.8 °F 80% 30.44 in 10.0 mi North 19.6 mph - N/A   Overcast
5:15 PM 21.2 °F 7.3 °F 15.8 °F 80% 30.44 in 10.0 mi North 16.1 mph 21.9 mph N/A   Overcast
5:35 PM 21.2 °F 7.8 °F 15.8 °F 80% 30.45 in 10.0 mi North 15.0 mph - N/A   Overcast
5:55 PM 21.2 °F 6.0 °F 15.8 °F 80% 30.46 in 10.0 mi North 19.6 mph - N/A   Overcast
6:15 PM 19.4 °F 6.0 °F 14.0 °F 80% 30.46 in 10.0 mi North 13.8 mph - N/A   Overcast
6:35 PM 19.4 °F 6.6 °F 14.0 °F 80% 30.46 in 10.0 mi North 12.7 mph 18.4 mph N/A Snow Light Snow
6:55 PM 19.4 °F 5.0 °F 14.0 °F 80% 30.47 in 10.0 mi North 16.1 mph 19.6 mph N/A   Overcast
7:15 PM 19.4 °F 5.5 °F 14.0 °F 80% 30.47 in 10.0 mi North 15.0 mph 21.9 mph N/A   Overcast
7:35 PM 19.4 °F 7.2 °F 14.0 °F 80% 30.47 in 10.0 mi NNE 11.5 mph - N/A   Overcast
7:55 PM 19.4 °F 6.6 °F 14.0 °F 80% 30.48 in 10.0 mi North 12.7 mph 19.6 mph N/A Snow Light Snow
8:15 PM 19.4 °F 8.6 °F 14.0 °F 80% 30.48 in 10.0 mi North 9.2 mph 17.3 mph N/A   Overcast
8:35 PM 19.4 °F 7.9 °F 14.0 °F 80% 30.48 in 10.0 mi NNE 10.4 mph - N/A   Overcast
8:55 PM 19.4 °F 10.4 °F 14.0 °F 80% 30.49 in 10.0 mi North 6.9 mph - N/A Snow Light Snow
9:15 PM 19.4 °F 9.5 °F 14.0 °F 80% 30.49 in 10.0 mi NNE 8.1 mph - N/A Snow Light Snow
9:35 PM 19.4 °F 7.9 °F 14.0 °F 80% 30.49 in 10.0 mi NNE 10.4 mph - N/A   Overcast
9:55 PM 17.6 °F 6.4 °F 12.2 °F 79% 30.49 in 10.0 mi North 9.2 mph - N/A   Mostly Cloudy
10:15 PM 17.6 °F 7.3 °F 12.2 °F 79% 30.49 in 10.0 mi North 8.1 mph - N/A   Scattered Clouds
10:35 PM 17.6 °F 7.3 °F 14.0 °F 86% 30.49 in 10.0 mi North 8.1 mph - N/A   Scattered Clouds
10:55 PM 15.8 °F 6.1 °F 12.2 °F 86% 30.49 in 10.0 mi NNW 6.9 mph - N/A   Scattered Clouds
11:15 PM 15.8 °F 6.1 °F 12.2 °F 86% 30.48 in 10.0 mi NNW 6.9 mph - N/A   Mostly Cloudy
11:35 PM 15.8 °F 6.1 °F 12.2 °F 86% 30.48 in 10.0 mi NNW 6.9 mph - N/A   Overcast
11:55 PM 14.0 °F 3.9 °F 12.2 °F 93% 30.48 in 10.0 mi NW 6.9 mph - N/A   Mostly Cloudy